[[{"header":{"parameterUnit":"m.s-1","parameterCategory":1,"la1":30.2991,"la2":30.254,"lo1":-89.0895,"lo2":-89.0444,"dy":0.0017,"dx":0.0017,"nx":28,"ny":28,"refTime":"2025-05-25T09:00:00:Z","depth":0,"parameterNumber":2,"parameterNumberName":"U-component_of_WINDS"},"data":[0,0,0,0,0,0,0,0,0,0,0,0,0,0,0,0,0,0,0,0,0,0,0,0,0,0,0,0,0,0,0,0,0,0,0,0,0,0,0,0,0,0,0,0,0,0,0,0,0,0,0,0,0,0,0,0,0,0,0.6923,0.6923,0,0.6918,0.6918,0.6918,0.6902,0.6902,0.6901,0.6901,0.6894,0.6894,0.6895,0,0,0,0,0,0,0,0,0,0,0,0,0,0.6916,0.6916,0.6923,0.6923,0.6923,0.6918,0.6918,0.6918,0.6902,0.6902,0.6901,0.6901,0.6894,0.6894,0.6895,0,0,0,0,0,0,0,0,0,0,0,0,0,0.6916,0.6916,0.6923,0.6915,0.6914,0.6918,0.6918,0.6918,0.6902,0.6902,0.6901,0.6901,0.6894,0.6894,0.6895,0.6907,0,0,0.6895,0.6895,0,0,0,0,0,0,0,0,0.6916,0.6916,0.6916,0.6915,0.6914,0.691,0.6913,0.6914,0.6902,0.6907,0.6901,0.69,0.69,0.69,0.69,0.6906,0.6906,0.6895,0.6895,0.6896,0.6896,0,0,0,0,0,0,0,0.6916,0.6916,0.6921,0.6916,0.6915,0.691,0.6909,0.6913,0.6906,0.6906,0.6905,0.6905,0.6899,0.69,0.69,0.6906,0.6895,0.6895,0.6896,0.6896,0.6919,0.692,0,0,0,0,0,0,0.6917,0.6916,0.6922,0.6921,0.6914,0.6911,0.691,0.6912,0.6906,0.6905,0.6905,0.6904,0.69,0.6899,0.6899,0.6911,0.6896,0.6896,0.6896,0.6919,0.6919,0.692,0,0,0,0,0,0,0.6917,0.6918,0.6922,0.6918,0.6919,0.6911,0.6914,0.6912,0.6913,0.6906,0.6904,0.6907,0.6899,0.6899,0.6904,0.6911,0.6896,0.6896,0.6918,0.6919,0.692,0.6937,0,0,0,0,0,0,0.6917,0.6918,0.6924,0.6919,0.6919,0.6928,0.6914,0.6913,0.6913,0.6912,0.6907,0.6905,0.6899,0.6904,0.6905,0.6911,0.6896,0.6917,0.6918,0.6919,0.6935,0.6938,0.694,0,0,0,0,0,0.6917,0.6929,0.6924,0.6925,0.6926,0.6929,0.6929,0.6921,0.6914,0.6919,0.6914,0.6906,0.691,0.6905,0.6905,0.6912,0.6917,0.6918,0.6919,0.6934,0.6937,0.694,0,0,0,0,0,0,0.6935,0.6928,0.6923,0.6934,0.6932,0.6926,0.6932,0.6925,0.6925,0.6923,0.6913,0.6912,0.6919,0.6916,0.691,0.6922,0.6912,0.6913,0.6923,0.6926,0.6928,0.6929,0.6896,0,0,0,0,0,0.694,0.6944,0.6937,0.6947,0.6947,0.6939,0.6941,0.6935,0.6932,0.6931,0.6927,0.6924,0.6924,0.6925,0.6926,0.6935,0.6932,0.6939,0.6941,0.6943,0.6944,0.6947,0.6949,0.6923,0.6923,0.6923,0,0,0.6951,0.6947,0.695,0.6951,0.6949,0.6952,0.6939,0.6943,0.6945,0.6932,0.6936,0.6933,0.6929,0.6936,0.6939,0.6933,0.6951,0.6945,0.6946,0.6946,0.6948,0.695,0.6952,0.6924,0.6924,0.6924,0,0,0.6971,0.697,0.6977,0.6975,0.6972,0.6967,0.6968,0.6963,0.696,0.6965,0.6954,0.6956,0.6958,0.6954,0.6953,0.697,0.6962,0.6971,0.6982,0.6984,0.6986,0.6988,0.6993,0.6995,0.6972,0.6972,0.6972,0,0.6985,0.699,0.6982,0.6986,0.6985,0.6974,0.698,0.6978,0.6975,0.6974,0.6969,0.6969,0.6966,0.6971,0.6975,0.6975,0.6975,0.6971,0.6987,0.6989,0.699,0.6994,0.6996,0.6973,0.6973,0.6972,0.6972,0,0.7005,0.7009,0.7015,0.7012,0.7012,0.7018,0.7009,0.701,0.7003,0.6998,0.7002,0.6997,0.6995,0.6996,0.699,0.6999,0.6996,0.6989,0.6979,0.6994,0.6997,0.6999,0.6974,0.6974,0.6973,0.6973,0,0,0.7038,0.703,0.7032,0.7029,0.7024,0.7026,0.703,0.7028,0.7028,0.7026,0.7028,0.7028,0.7021,0.702,0.7013,0.7015,0.7027,0.7008,0.7007,0.701,0.7035,0.7039,0.7042,0.7021,0.7022,0.7022,0.7034,0,0.7057,0.7064,0.7055,0.7063,0.7065,0.7053,0.7056,0.7052,0.7047,0.7046,0.704,0.704,0.7031,0.703,0.7032,0.7025,0.7031,0.7024,0.7022,0.7022,0.7022,0.7044,0.7049,0.7061,0.7036,0.7036,0.7036,0,0.708,0.7078,0.7086,0.7078,0.7079,0.7082,0.7078,0.7079,0.7073,0.7069,0.7066,0.7058,0.706,0.705,0.7051,0.7046,0.7044,0.7041,0.7041,0.704,0.703,0.7042,0.7065,0.7067,0.7039,0.7039,0.7039,0,0.7101,0.7101,0.7105,0.7103,0.7095,0.7097,0.7093,0.7088,0.7086,0.7083,0.7082,0.7079,0.7077,0.7074,0.7064,0.7058,0.7065,0.7056,0.706,0.7061,0.7062,0.7062,0.7084,0.7063,0.7063,0.7063,0.7063,0,0.7122,0.7127,0.7114,0.7117,0.7121,0.7111,0.7115,0.711,0.7105,0.7105,0.7094,0.7094,0.7082,0.7081,0.7073,0.7074,0.7073,0.7069,0.7066,0.7069,0.707,0.7068,0.7066,0.7063,0.7063,0.7063,0.7063,0,0.7146,0.7138,0.7142,0.7133,0.7131,0.7134,0.7126,0.7127,0.7121,0.7121,0.712,0.711,0.7107,0.7097,0.7092,0.7087,0.709,0.7086,0.7091,0.709,0.7095,0.7094,0.7116,0.7118,0.7096,0.7096,0.7096,0,0.716,0.7163,0.7155,0.7154,0.7151,0.715,0.7149,0.7138,0.7137,0.713,0.7131,0.7128,0.7124,0.712,0.7112,0.7107,0.7103,0.711,0.7102,0.7104,0.7101,0.7101,0.71,0.7112,0.7112,0.7113,0.7113,0,0.7184,0.718,0.7178,0.7175,0.7173,0.717,0.7166,0.7166,0.7154,0.7152,0.7149,0.7147,0.7141,0.7137,0.7131,0.7126,0.7117,0.7116,0.7116,0.7119,0.7121,0.7119,0.7096,0.7115,0.7115,0.7115,0.7115,0.7115,0.7203,0.7205,0.7198,0.7196,0.7192,0.7188,0.7188,0.7181,0.7179,0.7174,0.7167,0.7165,0.7157,0.7148,0.7143,0.714,0.7135,0.7137,0.7137,0.7137,0.7138,0.7122,0.7139,0.7139,0.7139,0.7139,0.7139,0,0.7226,0.7221,0.7219,0.7213,0.7211,0.7203,0.7198,0.7196,0.7194,0.7188,0.7185,0.718,0.7176,0.7166,0.7161,0.716,0.7155,0.7159,0.7158,0.7157,0.7143,0.7142,0.7162,0.7162,0.7162,0.7162,0.7162,0.7162,0.7237,0.7239,0.7233,0.7232,0.7227,0.7224,0.7222,0.7217,0.7212,0.7208,0.7204,0.7198,0.719,0.7183,0.7178,0.7175,0.7173,0.7177,0.7173,0.716,0.7158,0.7156,0.7155,0.7177,0.7177,0.7187,0.7187,0.7187]},{"header":{"parameterUnit":"m.s-1","parameterCategory":1,"la1":30.2991,"la2":30.254,"lo1":-89.0895,"lo2":-89.0444,"dy":0.0017,"dx":0.0017,"nx":28,"ny":28,"refTime":"2025-05-25T09:00:00:Z","depth":0,"parameterNumber":3,"parameterNumberName":"V-component_of_WINDS"},"data":[0,0,0,0,0,0,0,0,0,0,0,0,0,0,0,0,0,0,0,0,0,0,0,0,0,0,0,0,0,0,0,0,0,0,0,0,0,0,0,0,0,0,0,0,0,0,0,0,0,0,0,0,0,0,0,0,0,0,5.6588,5.659,0,5.6707,5.6708,5.6709,5.6661,5.6659,5.6656,5.6653,5.6767,5.6773,5.6778,0,0,0,0,0,0,0,0,0,0,0,0,0,5.6313,5.6318,5.6588,5.659,5.6591,5.6707,5.6708,5.671,5.6662,5.6659,5.6655,5.6652,5.6766,5.6772,5.6779,0,0,0,0,0,0,0,0,0,0,0,0,0,5.6432,5.632,5.6588,5.6581,5.6582,5.6706,5.6708,5.671,5.6663,5.6658,5.6654,5.665,5.6763,5.6772,5.678,5.6915,0,0,5.6806,5.6809,0,0,0,0,0,0,0,0,5.6425,5.6442,5.6581,5.6582,5.6583,5.6665,5.6653,5.6779,5.6664,5.6632,5.6653,5.6648,5.6736,5.6747,5.6778,5.6921,5.6926,5.6806,5.6812,5.6815,5.6818,0,0,0,0,0,0,0,5.6417,5.6436,5.6635,5.6583,5.6584,5.657,5.6582,5.6676,5.6706,5.6634,5.6631,5.6646,5.6736,5.677,5.678,5.6927,5.6806,5.6814,5.6819,5.6822,5.7185,5.7189,0,0,0,0,0,0,5.6409,5.643,5.6631,5.6638,5.6492,5.6578,5.6592,5.6643,5.6705,5.671,5.665,5.6643,5.6757,5.677,5.6784,5.6946,5.6815,5.6823,5.6828,5.718,5.7186,5.7191,0,0,0,0,0,0,5.6404,5.6428,5.6626,5.6533,5.6558,5.6588,5.6645,5.6647,5.6681,5.6716,5.672,5.6679,5.6755,5.6772,5.6883,5.6949,5.6827,5.6834,5.7175,5.7182,5.7188,5.7271,0,0,0,0,0,0,5.6396,5.6426,5.648,5.6535,5.6563,5.6726,5.6649,5.6653,5.6697,5.669,5.6745,5.675,5.6753,5.6871,5.6892,5.6958,5.6841,5.7169,5.7178,5.7186,5.7262,5.728,5.7294,0,0,0,0,0,5.6386,5.6497,5.6483,5.6507,5.6631,5.673,5.6746,5.6748,5.6702,5.6755,5.6777,5.6749,5.6939,5.6883,5.6905,5.6976,5.7165,5.7176,5.7186,5.7255,5.7276,5.7294,0,0,0,0,0,0,5.6446,5.6504,5.6489,5.6622,5.6672,5.6722,5.6789,5.6771,5.6833,5.6824,5.6822,5.6835,5.6949,5.6973,5.691,5.7109,5.7044,5.706,5.7089,5.711,5.7126,5.7117,5.6848,0,0,0,0,0,5.6476,5.6554,5.6599,5.6711,5.6737,5.6759,5.6802,5.68,5.6851,5.6871,5.6901,5.6949,5.702,5.7066,5.7133,5.7266,5.7276,5.7325,5.7341,5.7354,5.7367,5.7437,5.7459,5.7225,5.7225,5.7224,0,0,5.6536,5.6577,5.6626,5.6724,5.6763,5.6841,5.6777,5.6863,5.692,5.6883,5.699,5.7014,5.7068,5.719,5.7245,5.7214,5.7434,5.7367,5.7377,5.7383,5.745,5.7472,5.7492,5.7232,5.723,5.7229,0,0,5.6685,5.6725,5.6823,5.6863,5.6923,5.6936,5.696,5.7013,5.7028,5.7136,5.711,5.7176,5.7298,5.7337,5.7373,5.7536,5.7511,5.7558,5.7641,5.771,5.7728,5.7745,5.7802,5.7822,5.7571,5.7571,5.7571,0,5.6752,5.6872,5.6874,5.6963,5.7006,5.6978,5.7075,5.7113,5.7191,5.722,5.7184,5.7336,5.737,5.75,5.754,5.757,5.7595,5.7551,5.7726,5.7742,5.7757,5.7812,5.7833,5.7576,5.7575,5.7575,5.7574,0,5.6949,5.7033,5.7104,5.7182,5.7233,5.7325,5.734,5.739,5.7383,5.74,5.7509,5.7549,5.7623,5.7653,5.7647,5.7782,5.7761,5.7726,5.766,5.7785,5.7836,5.7857,5.7583,5.7582,5.758,5.7579,0,0,5.7141,5.7219,5.7245,5.728,5.7344,5.7407,5.7496,5.7571,5.7614,5.7667,5.7741,5.7845,5.7812,5.7853,5.785,5.791,5.8035,5.7867,5.7868,5.7896,5.8186,5.8211,5.8236,5.802,5.8024,5.8027,5.8181,0,5.7294,5.7455,5.746,5.7606,5.7681,5.7655,5.7733,5.7779,5.7796,5.7861,5.7879,5.7952,5.7905,5.7929,5.7987,5.8008,5.8093,5.7997,5.8086,5.8089,5.8073,5.8262,5.829,5.8434,5.8201,5.8204,5.8207,0,5.7496,5.7558,5.7712,5.7764,5.7796,5.7867,5.7934,5.7997,5.8048,5.8056,5.8101,5.8089,5.8178,5.811,5.8231,5.8166,5.8202,5.8217,5.8223,5.8231,5.8155,5.8274,5.848,5.8501,5.8238,5.8236,5.8233,0,5.7618,5.7741,5.7849,5.7879,5.7943,5.7992,5.8021,5.8067,5.8111,5.817,5.8198,5.8265,5.8301,5.8352,5.8357,5.8308,5.8479,5.8412,5.8486,5.8486,5.8523,5.852,5.8736,5.8548,5.8547,5.8547,5.8546,0,5.7789,5.7884,5.7905,5.7971,5.8076,5.8079,5.8181,5.8205,5.8247,5.8315,5.8295,5.8359,5.8363,5.8428,5.8432,5.853,5.8547,5.8554,5.8554,5.8556,5.8555,5.8579,5.8569,5.8553,5.8551,5.855,5.8549,0,5.7944,5.7962,5.8077,5.8129,5.8143,5.8218,5.826,5.8322,5.8337,5.8424,5.8444,5.8468,5.8543,5.8553,5.8641,5.8643,5.8762,5.8751,5.8746,5.8744,5.8817,5.881,5.9055,5.9087,5.8879,5.8881,5.8882,0,5.8052,5.8124,5.8184,5.8229,5.8261,5.8334,5.8379,5.8384,5.8432,5.8494,5.8548,5.8622,5.8681,5.8802,5.8825,5.8891,5.8881,5.8963,5.8891,5.889,5.8881,5.8877,5.8883,5.8976,5.8979,5.8981,5.8982,0,5.8241,5.8246,5.8313,5.8384,5.8439,5.8494,5.8546,5.8583,5.8595,5.8648,5.8726,5.8772,5.8862,5.8935,5.9,5.9026,5.9006,5.9005,5.9025,5.9027,5.9021,5.9024,5.8783,5.8999,5.8997,5.8996,5.8995,5.8994,5.8374,5.8437,5.8489,5.8564,5.8604,5.8653,5.8714,5.8737,5.8803,5.8878,5.8876,5.8961,5.9007,5.9094,5.9124,5.9189,5.9162,5.9192,5.9199,5.9206,5.9213,5.9011,5.9201,5.92,5.92,5.92,5.9199,0,5.8561,5.8594,5.8663,5.8737,5.8796,5.8774,5.8829,5.8879,5.8955,5.9001,5.906,5.9149,5.9219,5.9248,5.9316,5.9362,5.9354,5.9379,5.9375,5.9381,5.9234,5.9209,5.9384,5.9384,5.9384,5.9384,5.9384,5.9384,5.8666,5.8771,5.8782,5.8906,5.8936,5.9021,5.9055,5.9099,5.9136,5.9236,5.9295,5.9314,5.9353,5.9423,5.9486,5.9492,5.9517,5.9547,5.9549,5.9411,5.9392,5.9374,5.9351,5.9553,5.9553,5.9691,5.9692,5.9693]}]]